Regional Weather Roundup
Issued by NWS Wakefield, VA

Home | Current Version | Previous Version | Graphics & Text | Print | Product List | Glossary On
Versions: 1 2 3 4 5 6 7 8 9 10 11 12 13 14 15 16 17 18 19 20 21 22 23 24 25 26 27 28
000
ASUS41 KAKQ 200813
RWRAKQ

REGIONAL WEATHER ROUNDUP
NATIONAL WEATHER SERVICE WAKEFIELD VA
300 AM EST MON NOV 20 2017

Note: "fair" indicates few or no clouds below 12,000 feet with no
significant weather and/or obstructions to visibility. * = Denotes
station may not report precipitation (e.g., rain,snow,etc.),
thunder or fog.

VAZ042-051-052>054-056-200900-
NORTHERN VIRGINIA

CITY           SKY/WX    TMP DP  RH WIND       PRES   REMARKS
WASH NATIONAL  CLOUDY    43  23  45 W10G23    30.06R
DULLES         PTCLDY    39  22  50 W13G20    30.06R
FORT BELVOIR   PTCLDY    42  20  40 NW10G21   30.06R
QUANTICO       NOT AVBL
FREDERICKSBRG* PTCLDY    33  28  80 SW3       30.07R
STAFFORD*      CLEAR     34  22  61 CALM      30.10R
WARRENTON      NOT AVBL
CULPEPER*      CLEAR     33  20  58 CALM      30.08R
MANASSAS*      MOCLDY    40  22  48 NW9       30.07R
LEESBURG*      PTCLDY    39  27  60 NW17G26   30.06R
WINCHESTER     MOCLDY    36  19  51 W13G29    30.05R
FRONT ROYAL*   MOSUNNY   37  21  52 W7        30.04R
LURAY*         SUNNY     36  23  60 W6        30.05R
$$

VAZ048-049-060>072-079>083-200900-
CENTRAL AND SOUTH CENTRAL VIRGINIA

CITY           SKY/WX    TMP DP  RH WIND       PRES   REMARKS
RICHMOND       CLEAR     37  26  64 W7        30.07R
CHESTERFIELD*  NOT AVBL
PETERSBURG*    NOT AVBL
HANOVER        CLEAR     35  26  69 CALM      30.08R
TAPPAHANNOCK*    N/A    N/A N/A N/A MISG        N/A
QUINTON*       FAIR      35  27  72 W3        30.08R
CHARLOTTSVILLE PTCLDY    38  20  48 CALM      30.06R
GORDONSVILLE*  MOSUNNY   39  20  46 W5        30.07R
ORANGE*        PTCLDY    36  23  60 W7        30.07R
LOUISA*          N/A     27  23  86 CALM        N/A
BUMPASS*       FAIR      33  24  68 CALM      30.07R
FARMVILLE*     CLEAR     30  28  94 CALM      30.08R
CREWE*         FAIR      35  25  67 W3        30.08S
FORT PICKETT*  NOT AVBL
CHASE CITY*    FAIR      33  25  73 CALM      30.10R
CLARKSVILLE*   FAIR      32  27  80 W5        30.11R
SOUTH HILL*    CLEAR     34  27  76 SW3       30.16R
LAWRENCEVILLE* FAIR      33  25  74 CALM      30.10R
EMPORIA*       CLEAR     34  27  75 W3        30.12R
$$

VAZ088>098-200900-
SOUTHEAST VIRGINIA

CITY           SKY/WX    TMP DP  RH WIND       PRES   REMARKS
NORFOLK        CLEAR     42  30  62 W5        30.07R
VIRGINIA BEACH NOT AVBL
NORFOLK NAVAL  CLEAR     43  29  57 W9        30.09R
WEST POINT*    CLEAR     38  26  61 W3        30.09R
SALUDA*        FAIR      37  27  67 W3        30.07R
NEWPORT NEWS   CLEAR     40  28  62 W8        30.08R
LANGLEY AFB    CLEAR     39  29  66 W9        30.07R
FORT EUSTIS    CLEAR     40  27  58 W9        30.06R
WILLIAMSBURG*  CLEAR     39  28  65 W8        30.09R
HR EXEC AP*    NOT AVBL
FRANKLIN*      CLEAR     35  26  70 NW3       30.10R
US460-WAKEFLD  CLEAR     36  27  69 W6        30.09R
$$

VAZ020-022-025-037-045-200900-
WEST CENTRAL AND SOUTHWEST VIRGINIA

CITY           SKY/WX    TMP DP  RH WIND       PRES   REMARKS
STAUNTON*      CLEAR     26  19  75 CALM      30.08R
WAYNESBORO*    SUNNY     33  21  61 W5        30.04S
HOT SPRINGS VA PTCLDY    24  17  74 W23G29    29.95S WCI   9
LYNCHBURG      CLEAR     35  20  54 W6        30.08R
DANVILLE       CLEAR     29  25  85 SW6       30.12R
SOUTH BOSTON*  FAIR      28  27  95 CALM      30.12R
MARTINSVILLE   CLEAR     26  23  86 CALM      30.13S
ROANOKE        CLEAR     36  22  56 NW9       30.12R
BLACKSBURG     PTCLDY    32  23  71 W7        30.11R
DUBLIN*        MOCLDY    31  24  73 W9        30.11S
MARION*        CLOUDY    31  21  67 W12G20    30.13S WCI  21
HILLSVILLE*    CLEAR     28  22  75 W7        30.07S
RICHLANDS*     CLOUDY    29  23  78 W6        30.14S
WISE*          CLEAR     28  27  93 W3        30.16R
ABINGDON*      CLEAR     28  26  90 CALM      30.18R
$$

MDZ021>025-VAZ099-100-200900-
SOUTHERN MARYLAND AND THE DELMARVA PENINSULA

CITY           SKY/WX    TMP DP  RH WIND       PRES   REMARKS
PATUXENT RIVER NOT AVBL
BAY BRIDGE APT CLOUDY    41  25  52 NW17G23   30.04R
LEONARDTOWN    PTCLDY    41  28  60 NW3       30.06R
DOVER          CLEAR     40  30  67 W16G25    30.00R
GEORGETOWN     CLOUDY    44  25  47 W10G22    30.02R
EASTON         PTCLDY    42  23  47 N20G28    30.07R
CAMBRIDGE      CLOUDY    43  25  49 NW12G18   30.04R
SALISBURY      CLOUDY    43  26  51 NW14G25   30.04R
OCEAN CITY     MOCLDY    43  26  51 NW12G23   30.03R
WALLOPS ISLAND MOCLDY    43  28  55 NW9       30.05R
ACCOMACK*      PTCLDY    45  29  53 NW10G18   30.05R
$$

NCZ012>017-030>032-200900-
NORTH CENTRAL AND EASTERN NORTH CAROLINA

CITY           SKY/WX    TMP DP  RH WIND       PRES   REMARKS
ROANOKE RAPIDS FAIR      36  28  75 CALM      30.11R
RALEIGH        CLEAR     31  27  85 CALM      30.14R
ELIZABETH CITY CLEAR     36  29  75 W6        30.09R
AHOSKIE*       CLEAR     34  27  74 CALM      30.11R
EDENTON*       CLEAR     39  31  74 CALM      30.10R
CURRITUCK*     CLEAR     38  30  73 W3        30.09R
KILL DEVIL HLS CLEAR     43  31  62 NW5       30.06R
MANTEO         CLEAR     44  32  61 NW9       30.08R
CAPE HATTERAS  CLEAR     47  34  60 NW10G21   30.07R
TARBORO*       NOT AVBL
GOLDSBORO      CLEAR     36  28  74 W3        30.12R
WASHINGTON     PTCLDY    37  28  71 CALM      30.12R
GREENVILLE     CLEAR     34  30  86 CALM      30.13R
NEW BERN       CLEAR     37  30  75 CALM      30.14R
WILMINGTON     CLEAR     37  32  82 NW5       30.14R
$$

VAZ048-200900-
ELSEWHERE

CITY           SKY/WX    TMP DP  RH WIND       PRES   REMARKS
HARRISBURG PA  PTCLDY    38  23  55 W15G25    29.99R
BALTIMORE      MOCLDY    40  24  53 W12       30.04R
ANNAPOLIS      NOT AVBL
ANDREWS AFB    CLOUDY    41  24  51 W10       30.03R
PHILADELPHIA   PTCLDY    40  23  50 W14G24    29.97R
HENDERSON NC   CLEAR     32  23  70 CALM      30.12R
GREENSBORO     CLEAR     32  25  75 NW5       30.11R
ROCKY MOUNT    CLEAR     35  28  75 SW3       30.13R
$$

VAZ100-200900-
MARINE

STATION/POSITION TIME  TEMP    WIND        PRES    WAVE   SWELL
                       AIR SEA DIR/SP/G            HT/PER HT/PER
                 (UTC) (F)     (DEG/KT/KT) (MB)    (FT/S) (FT/S)
BRANDYWINE LGT   0736   45     310/ 28/ 36 1015.5R
CAPE MAY NJ      0736   44 48  310/ 24/ 31 1014.7R
LEWES DE         0736   43 52  280/  9/ 12 1015.8R
15NM E FENWICK I 0750   47 59  270/ 21/ 27 1015.8R   4/ 5   2/ 9
OCEAN-CITY-INLET 0736   43 52  320/ 13/ 20 1017.0R
WACHAPREAGUE VA  0736   42 50  270/  2/  3 1017.4R
THOMAS POINT MD  0800   43 53  290/ 17/ 19   N/A
GOOSES REEF MD   0750   44     360/ 14/ 17 1011.7R
COVE POINT MD    0736   44     330/ 10/ 15 1018.0R
SOLOMONS ISLAND  0736   44 54  320/  6/  9 1017.1R
BISHOPS HEAD MD  0736   44 46  320/ 14/ 18 1017.8R
PINEY POINT MD   0736          300/ 11/ 13   N/A
POTOMAC MD       0750   45     290/ 14/ 17 1017.2R
CAMBRIDGE MD     0736   43 50              1017.9R
LEWISETTA VA     0736   42 51  280/  9/ 12 1017.7R
RAPPAHANNOCK LGT 0736          290/ 18/ 21 1018.1R
STINGRAY PT      0750   44     310/ 14/ 16 1018.2R
YORK RVR RNG VA  0736   44     290/ 15/ 16 1018.3R
YORKTOWN VA      0736   42 54  250/ 11/ 14 1017.7R
JAMESTOWN VA     0750          290/ 12/ 16   N/A
DOMINION TERM VA 0736   44     300/ 13/ 15 1018.4R
KIPTOPEKE VA     0736      54  300/ 17/ 21   N/A
CAPE HENRY VA    0736   44     260/  8/ 11   N/A
WILLOUBY STN VA  0736   44     300/ 15/ 17 1018.1R
S CRANEY ISL VA  0736   41     310/  3/  4 1018.1R
CAPE HENRY BUOY  0800      60                N/A     3/ 4
1ST LANDING BUOY 0750   47     310/ 17/ 21 1018.0R
CAPE CHARLES BUO 0751      58                N/A     3/ 3
64NM E OF VA BCH 0750   51 60  320/ 17/ 21 1017.2R   7/ 8   5/ 8
DUCK PIER NC     0736   45 60  310/ 12/ 16 1017.8R
44100 DUCK FRF   0745      61                N/A     5/ 7
44056 DUCK FRF   0800      61                N/A     4/ 6
OREGON INLET NC  0736   46 57  310/ 11/ 15 1017.9R
HATTERAS NC      0736   48 60  330/ 22/ 25 1017.8R
DIAMOND SHLS NC  0750   51 67  320/ 17/ 21 1017.9R   6/ 5
CAPE LOOKOUT NC  0800          330/ 16/ 21 1019.5R
$$




USA.gov is the U.S. government's official web portal to all federal, state and local government web resources and services.